Regional Weather Roundup
Issued by NWS

Home | Current Version | Previous Version | Text Only | Print | Product List | Glossary Off
Versions: 1 2 3 4 5 6 7 8 9 10 11 12 13 14 15 16 17 18 19 20 21 22 23 24 25 26 27 28 29 30 31 32 33 34 35 36 37 38 39 40 41 42 43 44 45 46 47 48 49 50

023
ASUS45 KCYS 290410
RWRWY

WYOMING REGIONAL WEATHER ROUNDUP
NATIONAL WEATHER SERVICE CHEYENNE WY
1000 PM MDT WED JUN 28 2017

NOTE:  "FAIR" INDICATES FEW OR NO CLOUDS BELOW 12,000 FEET
WITH NO SIGNIFICANT WEATHER AND/OR OBSTRUCTIONS TO VISIBILITY.

WYZ001-290500-
YELLOWSTONE NATIONAL PARK

CITY           SKY/WX    TMP DP  RH WIND       PRES   REMARKS
LK YELLOWSTONE   N/A     40  40 100 CALM      30.15R
W YELLOWSTONE  NOT AVBL

$$
WYZ002>013-054>058-071-098>099-290500-
NORTHERN WYOMING

CITY           SKY/WX    TMP DP  RH WIND       PRES   REMARKS
JACKSON        CLOUDY    50  45  81 N7        30.07R
CODY           MOCLDY    58  39  49 W9        29.94S
GREYBULL       FAIR      58  50  75 E7        29.88F
WORLAND        CLOUDY    57  50  77 NE5       29.91F
SHERIDAN       CLOUDY    61  44  53 W15       29.91R
BUFFALO        CLOUDY    57  46  66 N9        29.94R
GILLETTE       MOCLDY    58  54  86 CALM      29.91R
NEWCASTLE      FAIR      63  45  51 E5        29.82F

$$
WYZ014>020-022>026-101>103-290500-
CENTRAL WYOMING

CITY           SKY/WX    TMP DP  RH WIND       PRES   REMARKS
BIG PINEY      FAIR      45  39  79 N9        30.08S
PINEDALE       FAIR      43  41  93 NW5       30.09R
DUBOIS         FAIR      46  36  66 NW13      30.06R
LANDER         FAIR      55  38  52 W13       29.99R
RIVERTON       FAIR      52  44  74 N10       29.97R
CASPER         FAIR      61  43  51 N13G22    29.94R
DOUGLAS        FAIR      64  42  44 N3        29.89R

$$
WYZ021-027>030-104>119-290500-
SOUTHERN WYOMING

CITY           SKY/WX    TMP DP  RH WIND       PRES   REMARKS
EVANSTON       FAIR      58  37  45 N7        30.07R
KEMMERER         N/A     54  37  54 N7        30.09R
FORT BRIDGER   CLEAR     59  34  38 NE6       30.11R
ROCK SPRINGS   FAIR      54  36  50 N5        30.07R
DIXON          FAIR      66  30  26 CALM      30.05R
RAWLINS        MOCLDY    65  30  27 W10       30.03R
SARATOGA       MOCLDY    63  32  31 CALM      30.06R
LARAMIE        FAIR      60  33  36 SW8       30.05S
CHEYENNE       CLOUDY    70  34  26 VRB5      29.95R
TORRINGTON     FAIR      73  46  38 NE9       29.82R
PINE BLUFFS    MOCLDY    64  43  45 NW12      29.92R

$$




USA.gov is the U.S. government's official web portal to all federal, state and local government web resources and services.